Home > Weather > Malmö > Past weeks

Flag for Sweden Past Weather in Malmö, Sweden — Yesterday and Last 2 Weeks

Now
66 °F

Broken clouds.


Feels Like: 66 °F
Forecast: 56 / 72 °F
Wind: 7 mph from Northwest

Location: Malmo / Sturup

Current Time: Jul 26, 2016 at 8:35:03 AM

Latest Report: Jul 26, 2016 at 8:20 AM


Visibility: N/A

Pressure: 30.04 "Hg

Humidity: 88%

Dew Point: 63 °F

Location of MalmöLocation

Past Weather in Malmö — Graph

°F

Malmö Temperature Yesterday

Maximum temperature yesterday: 75 °F (at 11:50 AM)
Minimum temperature yesterday: 57 °F (at 3:20 AM)
Average temperature yesterday: 67 °F

High & Low Weather Summary for the Past Weeks

 TemperatureHumidityPressure
High81 °F (Jul 22, 2:20 PM)100% (Jul 11, 7:20 AM)30.15 "Hg (Jul 11, 7:20 AM)
Low50 °F (Jul 14, 4:20 AM)42% (Jul 22, 2:50 PM)29.62 "Hg (Jul 11, 7:20 AM)
Average64 °F79%30.00 "Hg
* Reported Jul 11 7:20 AM — Jul 26 7:20 AM, Malmö, Weather by CustomWeather, © 2016

Note: Actual official high and low records may vary slightly from our data, if they occured in-between our weather recording intervals... More about our weather records

Advertising

Malmö Weather History for the Previous 24 Hours

Scroll right to see more
 ConditionsComfort  
Time TempWeatherWind HumidityBarometerVisibility
7:20 AM
Tue, Jul 26
66 °FScattered clouds.5 mph100%30.04 "HgN/A
6:50 AM64 °FFog.2 mph100%30.04 "Hg4 mi
6:20 AM63 °FFog.2 mph100%30.04 "Hg2 mi
5:50 AM63 °FFog.2 mph100%30.04 "Hg3 mi
5:20 AM63 °FLight fog.2 mph100%30.04 "Hg0 mi
4:50 AM63 °FMostly cloudy.3 mph100%30.04 "Hg1 mi
4:20 AM61 °FFog.2 mph100%30.01 "Hg0 mi
3:50 AM61 °FFog.3 mph100%30.01 "Hg0 mi
3:20 AM61 °FFog.3 mph100%30.04 "Hg0 mi
2:50 AM61 °FFog.1 mph100%30.04 "Hg2 mi
2:20 AM61 °FFog.3 mph100%30.04 "Hg1 mi
1:50 AM61 °FFog.2 mph100%30.04 "Hg2 mi
1:20 AM61 °FFog.3 mph94%30.04 "Hg2 mi
12:50 AM61 °FFog.3 mph100%30.04 "Hg2 mi
12:20 AM63 °FFog.2 mph94%30.04 "Hg2 mi
11:50 PM
Mon, Jul 25
63 °FFog.2 mph94%30.04 "Hg3 mi
11:20 PM63 °FFog.3 mph100%30.04 "Hg4 mi
10:50 PM64 °FClear.3 mph94%30.04 "Hg10 mi
10:20 PM63 °FSunny.7 mph100%30.04 "Hg10 mi
9:50 PM64 °FSunny.7 mph94%30.04 "Hg10 mi
9:20 PM64 °FSunny.7 mph94%30.04 "Hg10 mi
8:50 PM66 °FSunny.6 mph88%30.04 "Hg10 mi
8:20 PM68 °FSunny.6 mph83%30.04 "Hg10 mi
7:50 PM70 °FSunny.7 mph78%30.04 "Hg10 mi
7:20 PM72 °FSunny.7 mph69%30.01 "Hg10 mi
6:50 PM72 °FSunny.8 mph65%30.04 "Hg10 mi
6:20 PM72 °FSunny.8 mph69%30.01 "Hg10 mi
5:50 PM72 °FSunny.9 mph69%30.01 "Hg10 mi
5:20 PM72 °FSunny.9 mph69%30.04 "Hg10 mi
4:50 PM73 °FSunny.10 mph65%30.04 "Hg10 mi
4:20 PM75 °FSunny.10 mph61%30.04 "Hg10 mi
3:50 PM73 °FSunny.10 mph69%30.04 "Hg10 mi
3:20 PM73 °FSunny.10 mph69%30.07 "Hg10 mi
2:50 PM73 °FSunny.12 mph69%30.07 "Hg10 mi
2:20 PM73 °FPassing clouds.10 mph69%30.07 "HgN/A
1:50 PM73 °FPassing clouds.9 mph69%30.07 "HgN/A
1:20 PM73 °FPassing clouds.9 mph69%30.07 "HgN/A
12:50 PM75 °FPassing clouds.8 mph69%30.07 "HgN/A
12:20 PM73 °FPassing clouds.10 mph65%30.07 "HgN/A
11:50 AM75 °FPassing clouds.9 mph65%30.07 "HgN/A
11:20 AM73 °FPassing clouds.8 mph69%30.07 "HgN/A
10:50 AM73 °FSunny.8 mph74%30.07 "Hg10 mi
10:20 AM72 °FSunny.9 mph69%30.07 "Hg10 mi
9:50 AM72 °FPassing clouds.7 mph73%30.07 "HgN/A
9:20 AM70 °FSunny.6 mph78%30.07 "Hg10 mi
8:50 AM68 °FPassing clouds.8 mph83%30.07 "HgN/A
8:20 AM68 °FSunny.6 mph83%30.07 "Hg10 mi
Weather by CustomWeather, © 2016

See weather overviewHow to use our weather pages